Location: Treviso
(45.6669°N, 12.2430°E)
Time: 02:06:03
(UTC+02:00)

ISS - Pass Details

Date: 23 September 2018
Orbit: 403 x 409 km, 51.6° (Epoch: 24 September)

Event Time Altitude Azimuth Distance (km) Brightness Sun altitude
Rises 21:07:46 0° 244° (WSW) 2,326 0.6 -21.4°
Reaches altitude 10° 21:09:50 10° 245° (WSW) 1,468 -0.5 -21.7°
Enters shadow 21:12:21 49° 256° (WSW) 537 -3.0 -22.1°
